BAW46EZ EGLL-LEMD

Flight info

Callsign BAW46EZ
Flight time 1h 48m
Altitude 31000
Route GOGSI N621 SAM M195 IBNID/N0450F330 M195 MARUK N621 LELNA DCT ERCOZ DCT NOVAN DCT DELOG N864 VADOX DCT SNR N864 NONTU
Aircraft B772/H-SDE2E3FGHIJ5LORVWXY/LB1D1

Departure

Time 2026-05-04 14:00
Airport London Heathrow Airport (EGLL)

Arrival

Time 2026-05-04 15:48
Airport Adolfo Suárez Madrid–Barajas Airport (LEMD)
Time Latitude Longitude Altitude Speed Heading
2026-05-04 13:10 51.46915 -0.47497 91 ft 0 kts 269°
2026-05-04 13:49 51.46915 -0.47495 94 ft 2 kts 269°
2026-05-04 13:49 51.46915 -0.47454 91 ft 4 kts 269°
2026-05-04 13:49 51.46915 -0.47411 91 ft 3 kts 269°
2026-05-04 13:49 51.46917 -0.47377 91 ft 4 kts 245°
2026-05-04 13:50 51.46933 -0.47352 94 ft 4 kts 187°
2026-05-04 13:50 51.46958 -0.47351 92 ft 4 kts 179°
2026-05-04 13:50 51.46970 -0.47351 90 ft 0 kts 179°
2026-05-04 13:53 51.46931 -0.47351 91 ft 9 kts 180°
2026-05-04 13:53 51.46868 -0.47350 91 ft 9 kts 180°
2026-05-04 13:54 51.46741 -0.47349 91 ft 9 kts 179°
2026-05-04 13:54 51.46679 -0.47338 93 ft 9 kts 156°
2026-05-04 13:54 51.46657 -0.47147 94 ft 9 kts 90°
2026-05-04 13:55 51.46657 -0.47022 94 ft 14 kts 89°
2026-05-04 13:55 51.46659 -0.46603 94 ft 21 kts 89°
2026-05-04 13:55 51.46659 -0.46373 94 ft 21 kts 90°
2026-05-04 13:56 51.46660 -0.46139 94 ft 21 kts 89°
2026-05-04 13:56 51.46661 -0.45912 90 ft 21 kts 89°
2026-05-04 13:56 51.46663 -0.45452 90 ft 21 kts 89°
2026-05-04 13:57 51.46663 -0.45222 91 ft 21 kts 90°
2026-05-04 13:57 51.46664 -0.44989 91 ft 21 kts 90°
2026-05-04 13:58 51.46666 -0.44299 91 ft 21 kts 90°
2026-05-04 13:58 51.46640 -0.44061 93 ft 9 kts 159°
2026-05-04 13:58 51.46576 -0.44051 92 ft 9 kts 179°
2026-05-04 13:59 51.46519 -0.44050 90 ft 5 kts 180°
2026-05-04 13:59 51.46495 -0.44062 93 ft 2 kts 231°
2026-05-04 13:59 51.46492 -0.44694 93 ft 90 kts 270°
2026-05-04 14:00 51.46488 -0.46095 98 ft 159 kts 269°
2026-05-04 14:00 51.46449 -0.49863 1330 ft 187 kts 270°
2026-05-04 14:00 51.46425 -0.52123 1618 ft 218 kts 270°
2026-05-04 14:01 51.46393 -0.54740 1906 ft 249 kts 270°
2026-05-04 14:01 51.46368 -0.56652 2419 ft 257 kts 270°
2026-05-04 14:01 51.46271 -0.62536 3615 ft 265 kts 264°
2026-05-04 14:02 51.45930 -0.65434 4123 ft 265 kts 257°
2026-05-04 14:02 51.45551 -0.68332 4653 ft 266 kts 261°
2026-05-04 14:02 51.45403 -0.71290 5144 ft 267 kts 268°
2026-05-04 14:02 51.45284 -0.74224 5648 ft 262 kts 255°
2026-05-04 14:03 51.44329 -0.76688 6313 ft 265 kts 219°
2026-05-04 14:03 51.42820 -0.78392 6879 ft 268 kts 215°
2026-05-04 14:03 51.41288 -0.80123 7562 ft 270 kts 216°
2026-05-04 14:03 51.39760 -0.81891 8307 ft 272 kts 216°
2026-05-04 14:04 51.36677 -0.85513 9685 ft 277 kts 217°
2026-05-04 14:04 51.35123 -0.87355 10311 ft 280 kts 217°
2026-05-04 14:04 51.33525 -0.89257 10652 ft 297 kts 217°
2026-05-04 14:05 51.30025 -0.93439 11631 ft 325 kts 217°
2026-05-04 14:05 51.28203 -0.95619 12518 ft 328 kts 216°
2026-05-04 14:05 51.26300 -0.97633 13560 ft 329 kts 211°
2026-05-04 14:06 51.24299 -0.99441 14432 ft 333 kts 208°
2026-05-04 14:06 51.22256 -1.01219 15300 ft 337 kts 208°
2026-05-04 14:06 51.20190 -1.03025 16192 ft 341 kts 208°
2026-05-04 14:06 51.18105 -1.04873 17078 ft 345 kts 208°
2026-05-04 14:07 51.16029 -1.06733 17961 ft 349 kts 208°
2026-05-04 14:07 51.13877 -1.08674 18781 ft 353 kts 208°
2026-05-04 14:07 51.11762 -1.10591 19547 ft 356 kts 208°
2026-05-04 14:07 51.09602 -1.12552 20354 ft 359 kts 209°
2026-05-04 14:08 51.07422 -1.14532 21182 ft 362 kts 209°
2026-05-04 14:08 51.05224 -1.16527 21996 ft 366 kts 209°
2026-05-04 14:08 51.03003 -1.18541 22801 ft 370 kts 210°
2026-05-04 14:08 51.00758 -1.20575 23594 ft 373 kts 210°
2026-05-04 14:09 50.96209 -1.24690 24942 ft 379 kts 209°
2026-05-04 14:09 50.93907 -1.26766 25636 ft 382 kts 209°
2026-05-04 14:10 50.89254 -1.30945 27022 ft 387 kts 208°
2026-05-04 14:10 50.86896 -1.33052 27640 ft 391 kts 208°
2026-05-04 14:10 50.84526 -1.35168 28319 ft 392 kts 208°
2026-05-04 14:10 50.82141 -1.37296 28949 ft 395 kts 208°
2026-05-04 14:11 50.79739 -1.39438 29481 ft 399 kts 208°
2026-05-04 14:11 50.74878 -1.43765 30575 ft 403 kts 207°
2026-05-04 14:11 50.72428 -1.45943 30996 ft 407 kts 207°
2026-05-04 14:12 50.69947 -1.48145 31329 ft 411 kts 208°
2026-05-04 14:12 50.67440 -1.50368 31709 ft 415 kts 208°
2026-05-04 14:12 50.62383 -1.54845 32409 ft 419 kts 207°
2026-05-04 14:13 50.59827 -1.57103 32680 ft 423 kts 207°
2026-05-04 14:13 50.57250 -1.59377 32921 ft 426 kts 207°
2026-05-04 14:13 50.54674 -1.61648 32958 ft 422 kts 207°
2026-05-04 14:14 50.49548 -1.66157 33032 ft 430 kts 207°
2026-05-04 14:14 50.41589 -1.73130 33004 ft 436 kts 207°
2026-05-04 14:15 50.31059 -1.82320 33009 ft 431 kts 207°
2026-05-04 14:16 50.23201 -1.89150 33017 ft 432 kts 207°
2026-05-04 14:17 50.15292 -1.95993 33010 ft 434 kts 207°
2026-05-04 14:18 50.07353 -2.02836 33005 ft 435 kts 207°
2026-05-04 14:19 49.96814 -2.11910 33005 ft 434 kts 208°
2026-05-04 14:19 49.91342 -2.15467 33024 ft 427 kts 192°
2026-05-04 14:20 49.85488 -2.17173 33026 ft 429 kts 189°
2026-05-04 14:20 49.79605 -2.18916 33024 ft 431 kts 191°
2026-05-04 14:21 49.70810 -2.22014 33021 ft 432 kts 192°
2026-05-04 14:21 49.64966 -2.24192 33019 ft 432 kts 193°
2026-05-04 14:22 49.59132 -2.26369 33029 ft 431 kts 193°
2026-05-04 14:22 49.53295 -2.28535 33014 ft 431 kts 192°
2026-05-04 14:23 49.44557 -2.31762 33012 ft 430 kts 192°
2026-05-04 14:24 49.38738 -2.33903 33011 ft 430 kts 192°
2026-05-04 14:24 49.32922 -2.36038 33012 ft 430 kts 192°
2026-05-04 14:25 49.27104 -2.38169 33007 ft 430 kts 192°
2026-05-04 14:25 49.18377 -2.41355 32993 ft 430 kts 192°
2026-05-04 14:26 49.12549 -2.43476 32992 ft 431 kts 192°
2026-05-04 14:26 49.06718 -2.45594 32987 ft 431 kts 192°
2026-05-04 14:27 49.00884 -2.47707 32990 ft 431 kts 192°
2026-05-04 14:27 48.95048 -2.49816 32985 ft 431 kts 192°
2026-05-04 14:28 48.89213 -2.51920 32992 ft 431 kts 192°
2026-05-04 14:28 48.83378 -2.54018 32988 ft 431 kts 192°
2026-05-04 14:29 48.71713 -2.58198 32990 ft 431 kts 192°
2026-05-04 14:30 48.65881 -2.60281 32989 ft 431 kts 192°
2026-05-04 14:31 48.57097 -2.63408 32995 ft 434 kts 192°
2026-05-04 14:32 48.45275 -2.67599 32985 ft 438 kts 192°
2026-05-04 14:32 48.39344 -2.69695 32987 ft 438 kts 192°
2026-05-04 14:33 48.33455 -2.71771 32973 ft 437 kts 192°
2026-05-04 14:33 48.27539 -2.73851 32972 ft 436 kts 192°
2026-05-04 14:34 48.21631 -2.75925 32977 ft 436 kts 192°
2026-05-04 14:34 48.15729 -2.77965 32967 ft 435 kts 192°
2026-05-04 14:35 48.09828 -2.79957 32970 ft 435 kts 192°
2026-05-04 14:35 48.03930 -2.81942 32961 ft 434 kts 192°
2026-05-04 14:36 47.98032 -2.83929 32972 ft 435 kts 192°
2026-05-04 14:36 47.92132 -2.85914 32979 ft 435 kts 192°
2026-05-04 14:37 47.86223 -2.87898 32974 ft 435 kts 192°
2026-05-04 14:37 47.80310 -2.89878 32974 ft 435 kts 192°
2026-05-04 14:38 47.74399 -2.91854 32975 ft 435 kts 192°
2026-05-04 14:38 47.68495 -2.93823 32971 ft 435 kts 192°
2026-05-04 14:39 47.62625 -2.95776 32968 ft 435 kts 192°
2026-05-04 14:39 47.56712 -2.97738 32974 ft 436 kts 192°
2026-05-04 14:40 47.47825 -3.00679 32975 ft 436 kts 192°
2026-05-04 14:40 47.41904 -3.02633 32975 ft 436 kts 192°
2026-05-04 14:41 47.35979 -3.04584 32971 ft 436 kts 192°
2026-05-04 14:42 47.24164 -3.08460 32969 ft 434 kts 192°
2026-05-04 14:42 47.18275 -3.10385 32972 ft 433 kts 192°
2026-05-04 14:43 47.12400 -3.12302 32976 ft 432 kts 192°
2026-05-04 14:43 47.06527 -3.14214 32975 ft 432 kts 191°
2026-05-04 14:44 47.00656 -3.16120 32974 ft 432 kts 191°
2026-05-04 14:44 46.94788 -3.18022 32975 ft 432 kts 191°
2026-05-04 14:45 46.88915 -3.19920 32970 ft 433 kts 191°
2026-05-04 14:45 46.83033 -3.21818 32978 ft 433 kts 191°
2026-05-04 14:46 46.77136 -3.23716 32973 ft 434 kts 191°
2026-05-04 14:46 46.71268 -3.25600 32978 ft 436 kts 191°
2026-05-04 14:47 46.65331 -3.27503 32979 ft 438 kts 191°
2026-05-04 14:47 46.59365 -3.29410 32977 ft 440 kts 191°
2026-05-04 14:48 46.54390 -3.30998 32975 ft 441 kts 191°
2026-05-04 14:48 46.48398 -3.32905 32973 ft 441 kts 192°
2026-05-04 14:49 46.42406 -3.34810 32976 ft 441 kts 192°
2026-05-04 14:49 46.36417 -3.36708 32975 ft 440 kts 192°
2026-05-04 14:50 46.30433 -3.38602 32972 ft 440 kts 192°
2026-05-04 14:50 46.24455 -3.40488 32975 ft 439 kts 192°
2026-05-04 14:51 46.18493 -3.42363 32976 ft 438 kts 192°
2026-05-04 14:51 46.12538 -3.44233 32978 ft 438 kts 192°
2026-05-04 14:52 46.06596 -3.46095 32978 ft 437 kts 192°
2026-05-04 14:52 46.00667 -3.47950 32976 ft 436 kts 192°
2026-05-04 14:53 45.94749 -3.49796 32976 ft 435 kts 192°
2026-05-04 14:53 45.88838 -3.51637 32975 ft 434 kts 192°
2026-05-04 14:54 45.82935 -3.53471 32975 ft 434 kts 192°
2026-05-04 14:54 45.77033 -3.55301 32981 ft 434 kts 192°
2026-05-04 14:55 45.71119 -3.57130 32974 ft 435 kts 192°
2026-05-04 14:55 45.65206 -3.58955 32982 ft 435 kts 192°
2026-05-04 14:56 45.59288 -3.60778 32980 ft 435 kts 192°
2026-05-04 14:56 45.53370 -3.62597 32981 ft 435 kts 192°
2026-05-04 14:57 45.47451 -3.64412 32981 ft 435 kts 192°
2026-05-04 14:57 45.41534 -3.66223 32980 ft 435 kts 192°
2026-05-04 14:58 45.35621 -3.68028 32981 ft 434 kts 192°
2026-05-04 14:58 45.29710 -3.69830 32976 ft 434 kts 192°
2026-05-04 14:59 45.23804 -3.71625 32982 ft 434 kts 192°
2026-05-04 15:00 45.14943 -3.74313 32980 ft 434 kts 192°
2026-05-04 15:00 45.09038 -3.76099 32986 ft 434 kts 192°
2026-05-04 15:01 45.00180 -3.78771 32987 ft 434 kts 192°
2026-05-04 15:01 44.94317 -3.80536 32986 ft 434 kts 192°
2026-05-04 15:02 44.88413 -3.82308 32997 ft 434 kts 193°
2026-05-04 15:02 44.82508 -3.84077 32987 ft 434 kts 193°
2026-05-04 15:03 44.76611 -3.85841 32985 ft 433 kts 193°
2026-05-04 15:03 44.70717 -3.87599 32986 ft 433 kts 193°
2026-05-04 15:04 44.64831 -3.89352 32989 ft 432 kts 193°
2026-05-04 15:04 44.58946 -3.91101 32989 ft 432 kts 193°
2026-05-04 15:05 44.53065 -3.92845 32981 ft 432 kts 193°
2026-05-04 15:05 44.47186 -3.94585 32991 ft 432 kts 193°
2026-05-04 15:06 44.41311 -3.96322 32990 ft 431 kts 193°
2026-05-04 15:07 44.32336 -3.97423 32997 ft 433 kts 183°
2026-05-04 15:07 44.26315 -3.97653 32991 ft 433 kts 184°
2026-05-04 15:08 44.20335 -3.98032 32991 ft 433 kts 185°
2026-05-04 15:08 44.14282 -3.98500 32976 ft 433 kts 185°
2026-05-04 15:09 44.08315 -3.98976 32985 ft 432 kts 185°
2026-05-04 15:09 44.02309 -3.99451 32986 ft 432 kts 185°
2026-05-04 15:10 43.93294 -4.00158 32991 ft 432 kts 185°
2026-05-04 15:11 43.84285 -4.00861 32995 ft 432 kts 185°
2026-05-04 15:11 43.78284 -4.01329 33007 ft 432 kts 185°
2026-05-04 15:12 43.72279 -4.01773 33007 ft 432 kts 185°
2026-05-04 15:12 43.66282 -4.02189 33012 ft 432 kts 185°
2026-05-04 15:13 43.60282 -4.02607 33007 ft 431 kts 185°
2026-05-04 15:13 43.54289 -4.03028 33009 ft 431 kts 186°
2026-05-04 15:14 43.48289 -4.03449 33021 ft 432 kts 186°
2026-05-04 15:14 43.42279 -4.03871 33028 ft 433 kts 186°
2026-05-04 15:15 43.36255 -4.04290 33013 ft 433 kts 186°
2026-05-04 15:15 43.30233 -4.04709 33014 ft 433 kts 186°
2026-05-04 15:16 43.21209 -4.05336 33029 ft 433 kts 186°
2026-05-04 15:17 43.12166 -4.05964 33019 ft 434 kts 186°
2026-05-04 15:17 43.03138 -4.06587 33024 ft 432 kts 186°
2026-05-04 15:18 42.97132 -4.07002 33016 ft 432 kts 186°
2026-05-04 15:19 42.88163 -4.07618 33016 ft 432 kts 186°
2026-05-04 15:19 42.79173 -4.08235 33017 ft 432 kts 186°
2026-05-04 15:20 42.73170 -4.08645 33023 ft 432 kts 186°
2026-05-04 15:20 42.67148 -4.09057 32995 ft 434 kts 186°
2026-05-04 15:21 42.61120 -4.09468 33003 ft 434 kts 186°
2026-05-04 15:22 42.52076 -4.10081 32971 ft 433 kts 187°
2026-05-04 15:22 42.43060 -4.10692 32988 ft 433 kts 187°
2026-05-04 15:23 42.37040 -4.11100 32985 ft 433 kts 187°
2026-05-04 15:23 42.31016 -4.11506 32983 ft 434 kts 187°
2026-05-04 15:24 42.24968 -4.11916 32726 ft 437 kts 187°
2026-05-04 15:24 42.18917 -4.12321 32544 ft 437 kts 187°
2026-05-04 15:25 42.15893 -4.12523 32354 ft 431 kts 187°
2026-05-04 15:25 42.12939 -4.12717 32282 ft 420 kts 187°
2026-05-04 15:25 42.10056 -4.12908 32140 ft 410 kts 188°
2026-05-04 15:26 42.04398 -4.13291 31198 ft 404 kts 188°
2026-05-04 15:26 42.01606 -4.13478 30754 ft 400 kts 188°
2026-05-04 15:26 41.96095 -4.13843 29835 ft 393 kts 188°
2026-05-04 15:27 41.93375 -4.14025 29320 ft 390 kts 188°
2026-05-04 15:27 41.87997 -4.14382 28350 ft 383 kts 188°
2026-05-04 15:28 41.82713 -4.14733 27409 ft 378 kts 188°
2026-05-04 15:28 41.80128 -4.14906 26958 ft 376 kts 188°
2026-05-04 15:28 41.74894 -4.15254 26040 ft 372 kts 188°
2026-05-04 15:29 41.72346 -4.15423 25595 ft 371 kts 188°
2026-05-04 15:30 41.62098 -4.16103 23828 ft 367 kts 188°
2026-05-04 15:30 41.54465 -4.16606 22401 ft 364 kts 187°
2026-05-04 15:31 41.49426 -4.16940 21524 ft 361 kts 188°
2026-05-04 15:31 41.46935 -4.17188 21083 ft 358 kts 189°
2026-05-04 15:32 41.39524 -4.18071 19848 ft 355 kts 189°
2026-05-04 15:32 41.34649 -4.17567 18904 ft 363 kts 162°
2026-05-04 15:33 41.30345 -4.13941 18065 ft 369 kts 145°
2026-05-04 15:34 41.24070 -4.07208 16721 ft 397 kts 144°
2026-05-04 15:34 41.21988 -4.04974 16254 ft 372 kts 144°
2026-05-04 15:34 41.18099 -4.00846 15451 ft 352 kts 144°
2026-05-04 15:35 41.14293 -3.96847 14638 ft 346 kts 144°
2026-05-04 15:35 41.12411 -3.94873 14233 ft 344 kts 144°
2026-05-04 15:35 41.10540 -3.92913 13824 ft 341 kts 144°
2026-05-04 15:36 41.07462 -3.89688 13078 ft 338 kts 144°
2026-05-04 15:36 41.05628 -3.87767 12700 ft 333 kts 144°
2026-05-04 15:36 41.03842 -3.85896 12574 ft 321 kts 144°
2026-05-04 15:37 41.02117 -3.84092 12424 ft 311 kts 144°
2026-05-04 15:37 41.00449 -3.82352 12305 ft 300 kts 145°
2026-05-04 15:37 40.98890 -3.80618 12146 ft 286 kts 134°
2026-05-04 15:37 40.97921 -3.78364 11966 ft 284 kts 108°
2026-05-04 15:38 40.97648 -3.75784 11684 ft 284 kts 94°
2026-05-04 15:38 40.97541 -3.73180 11387 ft 283 kts 95°
2026-05-04 15:38 40.97419 -3.70585 11080 ft 282 kts 95°
2026-05-04 15:38 40.97291 -3.68000 10795 ft 281 kts 95°
2026-05-04 15:39 40.97024 -3.65468 10510 ft 275 kts 107°
2026-05-04 15:39 40.96428 -3.63073 10227 ft 273 kts 111°
2026-05-04 15:39 40.94637 -3.58847 9607 ft 259 kts 148°
2026-05-04 15:40 40.93032 -3.57875 9322 ft 252 kts 169°
2026-05-04 15:40 40.91314 -3.57612 9148 ft 248 kts 182°
2026-05-04 15:40 40.89586 -3.57647 8969 ft 250 kts 186°
2026-05-04 15:40 40.87855 -3.57704 8722 ft 248 kts 184°
2026-05-04 15:41 40.86162 -3.57724 8465 ft 245 kts 184°
2026-05-04 15:41 40.84488 -3.57722 8338 ft 235 kts 184°
2026-05-04 15:41 40.82881 -3.57712 8168 ft 228 kts 183°
2026-05-04 15:41 40.81313 -3.57701 7940 ft 223 kts 184°
2026-05-04 15:42 40.79785 -3.57689 7749 ft 216 kts 183°
2026-05-04 15:42 40.78326 -3.57677 7655 ft 201 kts 184°
2026-05-04 15:42 40.76952 -3.57666 7355 ft 197 kts 184°
2026-05-04 15:42 40.75565 -3.57658 6894 ft 199 kts 184°
2026-05-04 15:43 40.74202 -3.57647 6504 ft 193 kts 183°
2026-05-04 15:43 40.72860 -3.57636 6145 ft 193 kts 184°
2026-05-04 15:43 40.71519 -3.57628 5809 ft 191 kts 183°
2026-05-04 15:43 40.70208 -3.57613 5542 ft 188 kts 185°
2026-05-04 15:44 40.68901 -3.57606 5293 ft 186 kts 184°
2026-05-04 15:44 40.67615 -3.57597 5034 ft 183 kts 183°
2026-05-04 15:44 40.66369 -3.57588 4787 ft 175 kts 183°
2026-05-04 15:44 40.65164 -3.57575 4576 ft 174 kts 185°
2026-05-04 15:45 40.63947 -3.57570 4335 ft 174 kts 183°
2026-05-04 15:45 40.62745 -3.57556 4120 ft 172 kts 184°
2026-05-04 15:45 40.61550 -3.57547 3858 ft 171 kts 185°
2026-05-04 15:45 40.60388 -3.57540 3632 ft 164 kts 185°
2026-05-04 15:46 40.59289 -3.57529 3408 ft 152 kts 185°
2026-05-04 15:46 40.58274 -3.57522 3254 ft 142 kts 185°
2026-05-04 15:46 40.57296 -3.57515 2949 ft 137 kts 185°
2026-05-04 15:46 40.56330 -3.57515 2826 ft 142 kts 186°
2026-05-04 15:47 40.55330 -3.57503 2680 ft 144 kts 182°
2026-05-04 15:47 40.54338 -3.57489 2468 ft 141 kts 184°
2026-05-04 15:47 40.53386 -3.57481 2264 ft 134 kts 187°
2026-05-04 15:47 40.52430 -3.57481 2104 ft 140 kts 184°
2026-05-04 15:48 40.51471 -3.57463 2003 ft 129 kts 179°
2026-05-04 15:48 40.50698 -3.57462 2000 ft 90 kts 180°
2026-05-04 15:48 40.49964 -3.57401 1993 ft 27 kts 153°
2026-05-04 15:49 40.49864 -3.57313 1996 ft 11 kts 119°
2026-05-04 15:49 40.49882 -3.57250 1995 ft 6 kts 28°
2026-05-04 15:49 40.49931 -3.57237 1991 ft 13 kts
2026-05-04 15:49 40.50035 -3.57234 1988 ft 12 kts
2026-05-04 15:50 40.50104 -3.57189 1984 ft 13 kts 68°
2026-05-04 15:50 40.50112 -3.57070 1977 ft 13 kts 89°
2026-05-04 15:50 40.50111 -3.56949 1976 ft 13 kts 90°
2026-05-04 15:50 40.50111 -3.56828 1976 ft 13 kts 90°
2026-05-04 15:51 40.50112 -3.56708 1976 ft 13 kts 89°
2026-05-04 15:51 40.50114 -3.56597 1975 ft 9 kts 90°
2026-05-04 15:51 40.50071 -3.56550 1978 ft 9 kts 170°
2026-05-04 15:51 40.50010 -3.56548 1975 ft 9 kts 179°
2026-05-04 15:52 40.49948 -3.56547 1974 ft 9 kts 180°
2026-05-04 15:52 40.49886 -3.56547 1975 ft 9 kts 180°
2026-05-04 15:52 40.49825 -3.56547 1978 ft 9 kts 180°
2026-05-04 15:52 40.49752 -3.56547 1977 ft 11 kts 180°
2026-05-04 15:53 40.49674 -3.56547 1976 ft 11 kts 180°
2026-05-04 15:53 40.49596 -3.56547 1975 ft 11 kts 180°
2026-05-04 15:53 40.49518 -3.56546 1978 ft 11 kts 179°
2026-05-04 15:53 40.49440 -3.56545 1978 ft 11 kts 179°
2026-05-04 15:54 40.49363 -3.56544 1977 ft 11 kts 179°
2026-05-04 15:54 40.49285 -3.56543 1974 ft 11 kts 180°
2026-05-04 15:54 40.49210 -3.56543 1974 ft 7 kts 180°
2026-05-04 15:54 40.49176 -3.56545 1976 ft 3 kts 189°
2026-05-04 15:55 40.49164 -3.56570 1977 ft 4 kts 253°
2026-05-04 15:55 40.49161 -3.56602 1979 ft 4 kts 268°
2026-05-04 15:55 40.49161 -3.56631 1978 ft 2 kts 269°
2026-05-04 15:55 40.49161 -3.56646 1978 ft 1 kts 269°
2026-05-04 15:56 40.49161 -3.56651 1978 ft 0 kts 269°